Volver al catálogo

STARLINK-32935

ActivoComunicacionesVLEO
NORAD 63202·PAYLOAD·🇺🇸 United States

Lanzado Mar 13, 2025 desde Cape Canaveral Space Force Station

Loading…

Próximos Pases (próximas 24 horas)

TLE

ActualizadoSource: CelesTrak SupGP

Época: Sep 15, 2026, 02:11 UTC

1 63202C 25048V   26258.09145833  .00037972  00000+0  13754-2 0  2585
2 63202  43.0026  95.9988 0001672 274.2385 135.0227 15.27557547    14

Sigue STARLINK-32935 en tiempo real con AllMySat

Download on the App Store